Champaign, IL

9:25 PM CDT on April 24, 2017 (GMT -0500)
Univ Of Illinois-Willard

Weather History for KCMI - March, 2013

Change the Weather History Date:

Tuesday, March 12, 2013

  Actual Average Record
Temperature  
Mean Temperature 36 °F 39 °F  
Max Temperature 43 °F 49 °F 77 °F (2012)
Min Temperature 28 °F 30 °F 0 °F (1998)
Degree Days  
Heating Degree Days 29 26  
Month to date heating degree days 371 337  
Since 1 July heating degree days 4532 4839  
Cooling Degree Days 0 0  
Month to date cooling degree days 0 0  
Year to date cooling degree days 0 0  
Moisture  
Dew Point 27 °F    
Average Humidity 70    
Maximum Humidity 85    
Minimum Humidity 55    
Precipitation  
Precipitation 0.02 in 0.08 in 0.52 in (2014)
Month to date precipitation 0.38 0.79  
Year to date precipitation 5.44 4.86  
Sea Level Pressure  
Sea Level Pressure 30.01 in    
Wind  
Wind Speed 19 mph (West)    
Max Wind Speed 33 mph    
Max Gust Speed 40 mph    
Visibility 9 miles    
Events Snow    
T = Trace of Precipitation, MM = Missing Value Source: NWS Daily Summary

Daily Weather History Graph

Daily Weather History Graph

Search for Another Location

Airport or City:

Trip Planner

Search our weather history database for the weather conditions in past years. The results will help you decide how hot, cold, wet, or windy it might be!

Date:

Astronomy

Mar. 12, 2013 Rise Set
Actual Time 7:09 AM CDT 6:57 PM CDT
Civil Twilight 6:42 AM CDT 7:24 PM CDT
Nautical Twilight 6:10 AM CDT 7:55 PM CDT
Astronomical Twilight 5:38 AM CDT 8:27 PM CDT
Moon 7:15 AM CDT (3/12) 8:12 PM CDT (3/12)
Length of Visible Light 12h 42m
Length of Day
11h 48m
New Moon, 1% of the Moon is Illuminated
Mar 12
New Moon
Mar 19
First Quarter
Mar 27
Full
Apr 2
Last Quarter
Apr 10
New

Hourly Weather History & Observations

Time (CDT) Temp. Windchill Dew Point Humidity Pressure Visibility Wind Dir Wind Speed Gust Speed Precip Events Conditions
12:53 AM 32.0 °F 20.5 °F 28.0 °F 85% 29.93 in 10.0 mi West 18.4 mph - N/A   Overcast
1:53 AM 32.0 °F 20.8 °F 27.0 °F 82% 29.94 in 10.0 mi West 17.3 mph 24.2 mph N/A   Overcast
2:21 AM 32.0 °F 22.1 °F 26.6 °F 80% 29.92 in 10.0 mi West 13.8 mph - N/A   Overcast
2:53 AM 32.0 °F 20.5 °F 26.1 °F 79% 29.95 in 10.0 mi West 18.4 mph - N/A   Overcast
3:36 AM 30.2 °F 18.1 °F 24.8 °F 80% 29.93 in 10.0 mi West 18.4 mph - N/A   Overcast
3:53 AM 30.9 °F 18.4 °F 23.0 °F 72% 29.95 in 10.0 mi West 20.7 mph 26.5 mph N/A   Overcast
4:53 AM 30.9 °F 19.4 °F 23.0 °F 72% 29.95 in 10.0 mi West 17.3 mph - N/A   Overcast
5:53 AM 30.9 °F 20.7 °F 24.1 °F 76% 29.97 in 10.0 mi West 13.8 mph - N/A   Overcast
6:36 AM 30.2 °F 18.9 °F 23.0 °F 75% 29.97 in 10.0 mi West 16.1 mph - N/A   Scattered Clouds
6:53 AM 28.9 °F 17.7 °F 23.0 °F 78% 30.00 in 10.0 mi West 15.0 mph - N/A   Clear
7:53 AM 28.9 °F 18.6 °F 23.0 °F 78% 29.99 in 10.0 mi West 12.7 mph - N/A   Clear
8:53 AM 30.0 °F 18.3 °F 24.1 °F 79% 30.02 in 10.0 mi West 17.3 mph - N/A   Clear
9:53 AM 32.0 °F 20.5 °F 24.1 °F 73% 30.04 in 10.0 mi West 18.4 mph - N/A   Clear
10:53 AM 34.0 °F 24.2 °F 26.1 °F 73% 30.04 in 10.0 mi West 15.0 mph - N/A   Clear
11:53 AM 37.0 °F 27.4 °F 27.0 °F 67% 30.04 in 10.0 mi WSW 17.3 mph - N/A   Partly Cloudy
12:53 PM 39.9 °F 30.0 °F 28.0 °F 63% 30.04 in 10.0 mi West 21.9 mph 25.3 mph N/A   Scattered Clouds
1:53 PM 41.0 °F 31.9 °F 27.0 °F 57% 30.03 in 10.0 mi West 19.6 mph - N/A   Scattered Clouds
2:53 PM 42.1 °F 33.9 °F 30.0 °F 62% 30.02 in 10.0 mi West 17.3 mph 24.2 mph N/A   Mostly Cloudy
3:53 PM 41.0 °F 32.5 °F 30.0 °F 65% 30.01 in 10.0 mi West 17.3 mph 26.5 mph N/A   Mostly Cloudy
4:21 PM 37.4 °F 25.2 °F 30.2 °F 75% 30.00 in 1.5 mi West 28.8 mph 40.3 mph 0.00 in Snow Snow
4:34 PM 37.4 °F 27.8 °F 35.6 °F 93% 30.00 in 5.0 mi WNW 17.3 mph - 0.00 in Snow Light Snow
4:50 PM 37.4 °F 28.2 °F 33.8 °F 87% 30.00 in 10.0 mi WNW 16.1 mph 23.0 mph 0.00 in   Mostly Cloudy
4:53 PM 37.0 °F 26.2 °F 34.0 °F 89% 30.03 in 10.0 mi WNW 21.9 mph 25.3 mph 0.00 in   Mostly Cloudy
5:00 PM 35.6 °F 23.2 °F 33.8 °F 93% 30.02 in 1.0 mi West 26.5 mph 34.5 mph 0.00 in Snow Light Snow
5:15 PM 35.6 °F 25.9 °F 33.8 °F 93% 30.01 in 4.0 mi West 16.1 mph - 0.01 in Snow Light Snow
5:53 PM 37.0 °F 24.3 °F 28.9 °F 73% 30.04 in 10.0 mi West 31.1 mph 40.3 mph 0.02 in   Scattered Clouds
6:53 PM 35.6 °F 24.8 °F 28.4 °F 75% 30.05 in 10.0 mi West 19.6 mph 32.2 mph N/A   Overcast
7:53 PM 34.0 °F 24.2 °F 28.9 °F 82% 30.06 in 10.0 mi West 15.0 mph - N/A   Overcast
8:53 PM 34.0 °F 22.7 °F 27.0 °F 75% 30.08 in 10.0 mi West 19.6 mph 27.6 mph 0.00 in   Overcast
9:50 PM 33.8 °F 20.8 °F 28.4 °F 81% 30.07 in 10.0 mi WNW 26.5 mph 32.2 mph 0.00 in   Overcast
9:53 PM 32.0 °F 19.2 °F 27.0 °F 82% 30.09 in 10.0 mi WNW 23.0 mph 32.2 mph 0.00 in   Overcast
10:20 PM 30.2 °F 16.8 °F 26.6 °F 86% 30.07 in 9.0 mi West 23.0 mph 31.1 mph 0.00 in   Overcast
10:53 PM 30.9 °F 18.4 °F 27.0 °F 85% 30.11 in 4.0 mi WNW 20.7 mph - 0.00 in Snow Light Snow
11:53 PM 30.0 °F 18.7 °F 21.9 °F 72% 30.12 in 10.0 mi WNW 16.1 mph - 0.00 in   Mostly Cloudy